Probability
0 0 0 0 0 0 0 0 0 0 0 0 0 0 0 0 0 0 0 0 0 0 0 0 0 0 0 0 0 0 0 0 0 0 0 0 0 0 0 0 0 0 0
0 0 0 0 0 0 0 0 0 0 0 0 0 0 0 0 0 0 0 0 0 0 0 0 0 0 0 0 0 0 0 0 0 0 0 0 0 0 0 0 0 0 0
0 0 0 0 0 0 0 0 0 0 0 0 0 0 0 0 0 0 0 0 0 0 0 0 0 0 0 0 0 0 0 0 0 0 0 0 0 0 0 0 0 0 0
0 0 0 0 0 0 0 0 0 0 0 0 0 0 0 0 0 0 0 0 0 0 0 0 0 0 0 0 0 0 0 0 0 0 0 0 0 0 0 0 0 0 0
0 0 0 0 0 0 0 0 0 0 0 0 0 0 0 0 0 0 0 0 0 0 0 0 0 0 0 0 0 0 0 0 0 0 0 0 0 0 0 0 0 0 0
0 0 0 0 0 0 0 0 0 0 0 0 0 0 0 0 0 0 0 0 0 0 0 0 0 0 0 0 0 0 0 0 0 0 0 0 0 0 0 0 0 0 0
0 0 0 0 0 0 0 0 0 0 0 0 0 0 0 0 0 0 0 0 0 0 0 0 0 0 0 0 0 0 0 0 0 0 0 0 0 0 0 0 0 0 0
0 0 0 0 0 0 0 0 0 0 0 0 0 0 0 0 0 0 0 0 0 0 0 0 0 0 0 0 0 0 0 0 0 0 0 0 0 0 0 0 0 0 0
0 0 0 0 0 0 0 0 0 0 0 0 0 0 0 0 0 0 0 0 0 0 0 0 0 0 0 0 0 0 0 0 0 0 0 0 0 0 0 0 0 0 0
0 0 0 0 0 0 0 0 0 0 0 0 0 0 0 0 0 0 0 0 0 0 0 0 0 0 0 0 0 0 0 0 0 0 0 0 0 0 1 3 2 1 0
0 0 0 0 0 0 0 0 0 0 0 0 0 0 0 0 0 0 0 0 0 0 0 1 1 0 0 0 0 0 0 0 0 0 0 0 0 1 7 12 9 3 0
0 0 0 0 0 0 0 0 0 0 0 0 0 0 0 0 0 0 0 0 0 0 0 1 1 0 0 0 0 0 0 0 0 0 0 0 0 4 13 19 13 3 0
0 0 0 0 0 0 0 0 0 0 0 0 0 0 0 0 0 0 0 0 0 0 0 1 1 0 0 0 0 0 0 0 0 0 0 0 0 4 12 14 8 2 0
0 0 0 0 0 0 0 0 0 0 0 0 0 0 0 0 0 0 0 0 0 0 0 0 0 0 0 0 0 0 0 0 0 0 0 0 0 2 5 5 2 0 0
0 0 0 0 0 0 0 0 0 0 0 0 0 0 0 0 0 0 0 0 0 0 0 0 0 0 0 0 0 0 0 0 0 0 0 0 0 0 1 1 0 0 0
4 6 5 2 0 0 0 0 0 0 0 0 0 0 0 0 0 0 0 0 0 0 0 0 0 0 0 0 0 0 0 0 0 0 0 0 1 0 0 0 0 0 0
18 23 20 9 2 2 4 3 2 1 1 1 0 0 0 0 0 1 0 0 0 0 0 0 0 0 0 0 0 0 0 0 0 0 0 0 0 0 0 1 2 1 0
36 44 46 34 20 15 14 12 9 7 8 7 4 2 3 3 5 7 5 2 0 0 0 0 0 0 0 0 0 0 0 0 0 0 0 0 0 0 0 3 6 5 2
46 56 66 67 56 45 39 35 28 23 21 16 9 9 12 14 17 21 20 14 10 7 4 2 1 0 0 0 0 0 0 0 0 0 0 0 0 0 0 3 7 6 3
52 61 74 83 83 78 73 67 58 46 35 26 18 16 22 28 32 38 39 34 29 24 15 7 3 1 0 0 0 0 0 0 0 0 0 0 0 0 0 1 2 3 3
62 68 77 82 86 91 91 88 81 68 53 41 32 29 34 40 45 49 49 46 44 39 26 14 7 2 0 0 0 0 0 0 0 0 0 0 1 0 0 0 0 0 1
72 74 76 76 78 82 85 87 84 77 67 55 45 40 41 45 48 49 45 43 44 41 30 17 8 3 1 0 0 0 0 0 0 0 0 0 0 0 0 0 0 0 0
75 73 71 69 68 70 72 72 71 66 59 49 39 33 33 35 35 34 33 33 34 32 26 15 7 3 1 0 0 0 0 0 0 0 0 0 0 0 0 0 0 0 0
75 71 68 64 62 60 58 54 51 45 38 30 21 16 15 15 16 16 18 20 22 22 17 11 7 4 1 0 0 0 0 0 0 0 0 0 0 0 0 0 0 0 0
72 69 65 59 52 45 38 34 31 26 21 14 9 5 4 3 4 5 6 9 11 11 9 8 6 3 1 0 0 0 0 0 0 0 0 0 0 0 0 0 0 0 0
70 67 62 54 42 29 21 19 17 15 12 7 4 2 0 0 0 1 2 3 4 4 5 6 5 2 0 0 0 0 0 0 0 0 0 0 0 0 0 0 0 0 0
Wind_Speed
7 9 17 19 17 16 15 14 14 13 13 14 14 14 13 13 12 12 12 12 11 10 9 8 8 8 9 10 10 10 11 11 12 12 12 12 11 10 10 12 10 7 10
12 12 18 19 18 17 15 14 13 13 12 13 13 12 12 12 11 11 11 11 11 10 9 8 7 7 8 8 8 8 8 9 9 9 9 9 9 8 10 11 10 6 9
15 12 16 18 19 18 16 15 14 13 12 12 12 11 11 11 10 10 10 11 10 10 9 8 7 6 6 7 6 6 6 6 6 7 7 3 3 7 10 12 11 10 9
15 10 13 19 19 18 17 16 15 14 12 12 11 11 11 10 10 10 9 9 8 8 7 7 6 6 6 6 6 4 4 4 4 4 3 2 3 6 10 13 12 11 9
12 9 13 19 19 18 17 17 16 14 13 12 12 11 10 10 10 9 8 8 8 7 6 5 5 5 5 5 5 4 4 4 4 4 3 3 3 7 10 12 13 12 10
11 9 13 18 17 17 17 17 16 15 13 12 12 11 10 10 10 10 8 7 7 7 6 5 5 6 5 5 5 5 5 6 5 3 3 4 5 10 13 13 13 13 12
11 8 12 18 17 16 16 17 16 15 13 12 12 11 11 10 10 10 9 8 7 7 6 6 5 6 6 6 6 6 7 7 5 4 4 4 6 13 16 15 14 13 13
15 10 10 18 17 16 16 16 16 15 14 13 12 12 10 9 9 9 9 9 8 8 7 7 6 6 7 7 7 7 8 9 7 4 3 4 8 14 17 16 14 14 14
14 12 8 9 12 16 16 16 16 15 14 14 13 12 12 11 10 9 9 9 9 9 8 8 8 8 8 7 8 8 9 11 6 4 7 4 7 14 18 17 16 15 15
11 10 9 7 7 7 9 15 16 16 15 15 14 14 14 13 11 11 8 9 10 10 10 10 10 10 9 8 9 10 11 10 6 6 5 6 10 14 18 18 18 17 17
11 9 9 8 7 7 7 12 13 15 15 14 12 14 11 5 5 6 9 11 13 13 13 12 11 11 10 10 11 12 10 4 5 6 5 10 12 15 18 18 18 18 17
13 11 9 9 9 8 9 7 5 6 7 7 5 6 5 4 5 7 9 15 15 15 14 13 12 11 10 5 8 10 5 7 6 6 7 14 14 15 17 18 18 17 16
15 14 12 11 10 10 6 6 4 4 4 5 6 6 4 4 4 5 4 7 10 12 7 7 7 5 5 4 4 5 6 6 5 6 7 14 16 16 16 17 16 15 14
15 15 14 13 11 11 7 6 6 5 5 5 7 8 5 4 4 5 4 4 5 4 4 4 3 5 6 7 7 7 8 6 5 5 7 15 15 14 15 15 14 13 12
14 15 15 13 12 10 8 6 6 6 6 7 6 7 8 6 5 4 4 4 4 4 4 4 5 6 7 7 8 9 8 8 8 7 5 12 13 13 14 14 13 13 13
13 13 14 12 10 9 7 6 5 6 7 6 6 8 9 7 5 4 4 4 4 4 5 5 7 6 6 6 7 7 7 7 7 7 6 7 12 13 13 14 14 14 14
11 11 12 11 9 8 7 6 4 4 5 5 6 8 8 7 6 5 4 4 4 4 4 4 5 4 4 5 6 7 6 6 6 7 6 5 6 11 14 15 15 14 14
8 10 12 11 8 7 6 5 3 2 2 2 3 4 7 7 6 5 4 4 5 4 3 3 4 3 4 4 4 5 5 5 7 7 6 6 5 5 9 14 15 15 15
7 8 10 9 9 8 6 4 3 2 1 1 1 2 3 5 5 4 4 4 4 3 4 4 4 4 4 5 5 5 5 5 6 7 7 7 6 6 5 9 14 15 16
5 6 7 6 8 7 5 3 2 1 1 1 1 1 2 2 4 4 3 4 4 4 4 4 5 4 4 4 5 5 4 5 5 5 6 5 5 6 6 7 6 9 15
5 6 6 5 5 4 3 3 2 2 1 1 1 2 1 2 3 3 3 4 4 5 6 6 4 5 5 3 2 4 4 5 5 5 4 4 4 6 7 7 6 5 5
7 7 5 3 3 4 3 3 2 2 1 1 1 3 3 2 2 2 4 4 5 5 6 6 5 4 4 3 4 2 3 4 3 3 3 4 4 6 8 9 7 6 6
7 6 6 4 4 5 4 3 3 3 2 3 3 3 4 4 4 4 5 5 6 6 6 7 7 7 5 4 4 4 3 4 3 3 2 3 4 4 6 6 7 7 7
8 6 6 5 5 5 5 5 4 3 2 1 1 2 3 4 4 5 5 6 7 6 7 8 7 6 6 5 4 4 4 4 3 2 3 2 3 6 7 7 6 6 5
7 7 6 6 6 5 5 5 5 3 2 0 1 2 3 3 4 6 6 6 6 6 8 8 7 7 6 6 4 3 3 2 3 3 3 3 2 3 4 6 5 4 3
5 5 5 5 5 4 5 5 5 4 2 2 2 2 2 2 3 6 7 6 6 5 6 6 6 7 5 5 4 3 3 3 3 3 3 3 4 4 4 4 4 3 3
Wind_Direction
150 153 146 145 141 139 138 134 127 119 113 108 105 104 104 105 107 112 119 121 122 124 124 121 113 107 104 104 106 109 113 114 114 116 116 112 107 109 118 115 109 103 104
149 152 146 145 144 142 141 139 135 130 124 117 114 112 111 111 112 115 121 126 126 126 124 121 114 113 116 114 114 116 117 118 118 121 123 121 118 117 134 136 124 127 121
142 146 145 146 147 145 144 143 143 141 136 129 125 122 120 120 119 121 125 129 129 129 128 124 117 115 125 128 126 127 128 129 130 133 132 130 132 133 136 142 139 139 138
140 142 144 147 150 149 148 149 150 150 147 143 139 136 133 131 128 128 131 137 141 141 140 138 132 128 134 145 147 151 157 160 164 170 166 188 196 168 158 153 152 153 156
139 141 148 147 151 155 154 154 156 156 155 152 149 148 147 145 140 137 140 146 152 156 159 161 158 154 155 161 168 179 201 219 222 227 227 222 223 203 193 174 165 165 169
140 144 149 147 150 156 161 160 160 160 157 155 155 157 159 159 154 151 152 155 160 165 171 173 177 178 180 185 196 210 226 241 248 242 250 247 231 215 209 198 181 175 178
144 150 152 151 151 154 159 163 162 161 160 159 161 164 168 170 168 166 166 167 169 173 178 183 188 191 196 204 216 231 243 254 254 241 246 253 234 212 209 209 196 187 187
151 154 157 157 156 155 156 161 164 165 166 166 169 171 174 178 180 181 182 184 185 189 193 197 200 203 207 212 223 237 248 258 266 264 255 256 239 214 210 211 203 198 198
153 155 157 161 162 162 162 163 167 170 172 174 177 180 183 187 191 194 195 197 200 204 209 214 217 219 220 219 226 239 251 259 265 267 275 273 254 222 214 211 208 206 206
155 159 158 159 160 163 167 171 173 176 180 182 186 189 192 194 198 203 206 211 214 218 222 227 230 233 233 230 232 241 251 261 262 265 267 264 257 230 219 214 212 212 212
161 167 162 163 162 165 172 181 180 182 187 189 193 198 199 203 208 217 222 222 226 228 231 235 238 241 242 240 241 244 253 246 251 261 262 262 256 236 225 221 220 219 219
170 174 173 173 174 174 182 180 182 187 191 194 198 206 204 203 217 229 237 237 236 235 236 239 242 246 247 244 247 250 248 245 247 254 258 262 260 246 232 228 228 227 227
173 175 178 180 182 184 190 178 189 194 194 203 209 213 212 214 225 235 235 241 241 240 237 242 242 240 240 237 238 241 248 248 243 247 254 260 262 250 233 230 233 234 236
174 179 181 183 185 191 195 187 191 196 199 206 215 215 211 215 221 227 224 216 216 220 219 224 231 239 241 243 243 245 249 244 239 238 249 255 250 238 232 232 233 236 241
178 182 184 186 186 192 197 191 195 204 205 206 211 217 212 213 218 214 212 203 206 207 217 226 231 235 239 244 247 247 246 240 239 239 244 244 231 228 231 234 234 237 243
177 179 183 187 184 177 181 186 191 201 209 204 211 216 210 209 209 196 197 198 205 207 216 222 225 226 232 236 244 246 244 241 240 237 231 237 231 228 231 236 238 240 245
172 171 180 187 182 173 171 180 185 186 184 198 210 210 203 200 198 190 188 196 208 211 216 218 225 227 234 238 248 255 255 249 246 242 235 227 231 235 236 238 240 241 244
166 166 178 186 182 181 177 181 188 188 179 202 207 204 204 203 198 190 193 206 213 212 214 217 220 229 238 239 247 257 257 254 253 248 241 232 227 233 239 239 239 240 243
176 171 177 178 178 184 185 186 192 194 212 238 225 205 206 210 204 195 203 214 213 215 221 230 226 221 239 245 247 251 252 251 252 253 245 240 236 235 236 242 239 239 242
189 182 185 183 181 181 179 178 190 220 264 254 237 218 195 200 200 195 210 221 217 218 229 229 234 234 232 236 253 261 259 254 248 241 243 249 256 253 241 234 234 241 241
195 197 195 183 179 165 156 166 178 209 247 264 262 270 262 233 217 208 220 228 225 223 229 228 228 239 243 230 241 280 282 258 245 238 227 226 259 272 258 237 225 224 239
178 180 175 172 156 146 148 151 153 150 156 132 19 11 356 330 295 265 246 244 238 236 240 236 225 230 241 212 193 220 292 315 301 255 221 212 229 256 263 246 226 225 232
145 152 148 147 127 112 114 110 90 72 49 33 20 6 351 344 326 302 277 260 251 239 241 238 227 224 235 238 199 179 196 234 292 306 245 223 228 243 256 257 241 233 231
133 131 130 126 110 101 94 92 98 105 108 77 351 337 336 343 338 324 302 280 262 248 243 242 234 221 220 233 232 215 200 178 185 289 295 250 231 236 244 256 255 244 229
129 128 127 121 115 107 98 101 100 102 117 115 16 6 354 345 344 340 323 305 283 262 250 244 238 224 216 217 214 208 210 208 190 201 269 299 305 262 254 256 258 255 224
114 117 127 127 126 124 116 112 116 116 104 76 41 18 358 343 343 349 343 333 316 293 265 250 239 226 217 212 209 202 190 187 190 192 232 274 294 292 288 272 261 238 197